When you browse on this site, cookies collect data to enhance your experience and personalize the content and advertising you see.
Visit our Privacy Policy to learn more. By continuing to use the site, you agree to this use of cookies and data.
  • In Romania
  • List of Countries
  • For 7 days
  • Water Temperature
  • Satellite Maps
  • Weather Map
  • Weather Widgets
  • user-avatar
    Login

    Hourly Weather Lesnaya

    Today, 16 January, Wednesday

    Time Temperature Precipitation Wind Pressure Humidity
    00:00 -9°C° 0.1 mm 4 mps 727 mmHg 90%
    01:00 -8°C° 0.1 mm 3 mps 727 mmHg 91%
    02:00 -8°C° 0 mm 3 mps 727 mmHg 91%
    03:00 -8°C° 0 mm 3 mps 727 mmHg 91%
    04:00 -9°C° 0 mm 3 mps 728 mmHg 91%
    05:00 -9°C° 0 mm 3 mps 728 mmHg 91%
    06:00 -9°C° 0 mm 3 mps 728 mmHg 92%
    07:00 -10°C° 0 mm 3 mps 729 mmHg 92%
    08:00 -10°C° 0 mm 3 mps 729 mmHg 93%
    09:00 -10°C° 0 mm 3 mps 729 mmHg 93%
    10:00 -9°C° 0 mm 3 mps 729 mmHg 92%
    11:00 -9°C° 0 mm 3 mps 729 mmHg 91%
    12:00 -9°C° 0 mm 3 mps 730 mmHg 91%
    13:00 -8°C° 0 mm 3 mps 730 mmHg 90%
    14:00 -6°C° 0 mm 2 mps 730 mmHg 90%
    15:00 -6°C° 0 mm 2 mps 730 mmHg 91%
    16:00 -7°C° 0 mm 3 mps 731 mmHg 91%
    17:00 -7°C° 0 mm 3 mps 731 mmHg 92%
    18:00 -7°C° 0 mm 3 mps 731 mmHg 92%
    19:00 -7°C° 0 mm 3 mps 731 mmHg 92%
    20:00 -7°C° 0 mm 3 mps 732 mmHg 92%
    21:00 -8°C° 0 mm 3 mps 732 mmHg 92%
    22:00 -8°C° 0 mm 3 mps 732 mmHg 92%
    23:00 -8°C° 0 mm 3 mps 733 mmHg 91%

    Tomorrow, 17 January, Thursday

    Time Temperature Precipitation Wind Pressure Humidity
    00:00 -8°C° 0 mm 3 mps 733 mmHg 90%
    01:00 -9°C° 0 mm 3 mps 733 mmHg 89%
    02:00 -9°C° 0 mm 3 mps 733 mmHg 88%
    03:00 -10°C° 0 mm 3 mps 733 mmHg 90%
    04:00 -12°C° 0 mm 3 mps 733 mmHg 92%
    05:00 -13°C° 0 mm 3 mps 733 mmHg 94%
    06:00 -12°C° 0.1 mm 4 mps 732 mmHg 93%
    07:00 -11°C° 0.1 mm 4 mps 732 mmHg 91%
    08:00 -11°C° 0.1 mm 5 mps 731 mmHg 90%
    09:00 -10°C° 0.5 mm 5 mps 730 mmHg 90%
    10:00 -8°C° 0.5 mm 5 mps 730 mmHg 90%
    11:00 -8°C° 0.5 mm 6 mps 729 mmHg 90%
    12:00 -5°C° 0.4 mm 6 mps 728 mmHg 89%
    13:00 -3°C° 0.4 mm 6 mps 728 mmHg 88%
    14:00 -2°C° 0.4 mm 6 mps 727 mmHg 87%
    15:00 -2°C° 0.3 mm 6 mps 727 mmHg 87%
    16:00 -2°C° 0.3 mm 6 mps 726 mmHg 87%
    17:00 -1°C° 0.3 mm 6 mps 726 mmHg 87%
    18:00 -1°C° 0.5 mm 6 mps 725 mmHg 86%
    19:00 -1°C° 0.5 mm 6 mps 724 mmHg 86%
    20:00 -1°C° 0.5 mm 6 mps 724 mmHg 85%
    21:00 -1°C° 0.2 mm 7 mps 724 mmHg 85%
    22:00 -1°C° 0.2 mm 7 mps 723 mmHg 84%
    23:00 -1°C° 0.2 mm 7 mps 723 mmHg 84%

    Day after tomorrow, 18 January, Friday

    Time Temperature Precipitation Wind Pressure Humidity
    00:00 -1°C° 0.2 mm 7 mps 724 mmHg 83%
    01:00 -1°C° 0.2 mm 7 mps 725 mmHg 83%
    02:00 -1°C° 0.2 mm 7 mps 725 mmHg 83%
    03:00 -2°C° 0.1 mm 6 mps 726 mmHg 84%
    04:00 -1°C° 0.1 mm 5 mps 727 mmHg 85%
    05:00 -1°C° 0.1 mm 4 mps 728 mmHg 86%
    06:00 -2°C° 0.1 mm 4 mps 728 mmHg 88%
    07:00 -1°C° 0.1 mm 3 mps 729 mmHg 90%
    08:00 -2°C° 0.1 mm 3 mps 729 mmHg 92%
    09:00 -2°C° 0.2 mm 3 mps 730 mmHg 92%
    10:00 -2°C° 0.2 mm 2 mps 730 mmHg 92%
    11:00 -3°C° 0.2 mm 2 mps 731 mmHg 93%
    12:00 -4°C° 0.5 mm 2 mps 731 mmHg 93%
    13:00 -5°C° 0.5 mm 2 mps 731 mmHg 93%
    14:00 -6°C° 0.5 mm 2 mps 732 mmHg 94%
    15:00 -6°C° 0.2 mm 2 mps 732 mmHg 94%
    16:00 -7°C° 0.2 mm 2 mps 732 mmHg 94%
    17:00 -7°C° 0.2 mm 1 mps 732 mmHg 95%
    18:00 -8°C° 0.1 mm 2 mps 732 mmHg 93%
    19:00 -9°C° 0.1 mm 2 mps 732 mmHg 92%
    20:00 -9°C° 0.1 mm 2 mps 732 mmHg 91%
    21:00 -10°C° 0 mm 2 mps 733 mmHg 92%
    22:00 -12°C° 0 mm 2 mps 734 mmHg 93%
    23:00 -12°C° 0 mm 2 mps 734 mmHg 93%

    19 January, Saturday

    Time Temperature Precipitation Wind Pressure Humidity
    00:00 -14°C° 0 mm 3 mps 735 mmHg 93%
    01:00 -14°C° 0 mm 3 mps 735 mmHg 93%
    02:00 -15°C° 0 mm 4 mps 736 mmHg 93%
    03:00 -12°C° 0 mm 4 mps 736 mmHg 91%
    04:00 -11°C° 0 mm 4 mps 736 mmHg 89%
    05:00 -10°C° 0 mm 4 mps 737 mmHg 88%
    06:00 -10°C° 0.1 mm 4 mps 737 mmHg 88%
    07:00 -10°C° 0.1 mm 4 mps 737 mmHg 88%
    08:00 -9°C° 0.1 mm 4 mps 738 mmHg 89%
    09:00 -9°C° 0.1 mm 4 mps 738 mmHg 88%
    10:00 -8°C° 0.1 mm 4 mps 738 mmHg 87%
    11:00 -8°C° 0.1 mm 5 mps 739 mmHg 86%
    12:00 -8°C° 0.1 mm 5 mps 739 mmHg 85%
    13:00 -7°C° 0.1 mm 5 mps 739 mmHg 84%
    14:00 -7°C° 0.1 mm 5 mps 739 mmHg 83%
    15:00 -7°C° 0 mm 5 mps 739 mmHg 84%
    16:00 -8°C° 0 mm 4 mps 739 mmHg 86%
    17:00 -8°C° 0 mm 4 mps 740 mmHg 87%
    18:00 -8°C° 0.1 mm 4 mps 740 mmHg 87%
    19:00 -8°C° 0.1 mm 4 mps 740 mmHg 88%
    20:00 -7°C° 0.1 mm 4 mps 741 mmHg 88%
    21:00 -8°C° 0.1 mm 4 mps 741 mmHg 89%
    22:00 -7°C° 0.1 mm 3 mps 741 mmHg 90%
    23:00 -7°C° 0.1 mm 3 mps 741 mmHg 92%

    20 January, Sunday

    Time Temperature Precipitation Wind Pressure Humidity
    00:00 -7°C° 0.1 mm 3 mps 742 mmHg 91%
    01:00 -7°C° 0.1 mm 3 mps 742 mmHg 91%
    02:00 -7°C° 0.1 mm 3 mps 742 mmHg 91%
    03:00 -8°C° 0 mm 3 mps 742 mmHg 92%
    04:00 -9°C° 0 mm 3 mps 742 mmHg 92%
    05:00 -9°C° 0 mm 3 mps 742 mmHg 93%
    06:00 -9°C° 0 mm 3 mps 742 mmHg 93%
    07:00 -9°C° 0 mm 3 mps 743 mmHg 93%
    08:00 -9°C° 0 mm 3 mps 743 mmHg 92%
    09:00 -9°C° 0 mm 3 mps 743 mmHg 92%
    10:00 -9°C° 0 mm 3 mps 743 mmHg 91%
    11:00 -10°C° 0 mm 4 mps 743 mmHg 91%
    12:00 -8°C° 0 mm 3 mps 743 mmHg 91%
    13:00 -8°C° 0 mm 3 mps 743 mmHg 91%
    14:00 -8°C° 0 mm 3 mps 743 mmHg 91%
    15:00 -8°C° 0.1 mm 3 mps 743 mmHg 92%
    16:00 -9°C° 0.1 mm 3 mps 743 mmHg 93%
    17:00 -8°C° 0.1 mm 2 mps 743 mmHg 94%
    18:00 -8°C° 0.1 mm 2 mps 743 mmHg 94%
    19:00 -8°C° 0.1 mm 2 mps 743 mmHg 94%
    20:00 -9°C° 0.1 mm 2 mps 743 mmHg 94%
    21:00 -9°C° 0 mm 2 mps 743 mmHg 94%
    22:00 -9°C° 0 mm 2 mps 744 mmHg 95%
    23:00 -10°C° 0 mm 2 mps 744 mmHg 95%

    21 January, Monday

    Time Temperature Precipitation Wind Pressure Humidity
    00:00 -10°C° 0 mm 2 mps 744 mmHg 96%
    01:00 -12°C° 0 mm 2 mps 744 mmHg 96%
    02:00 -12°C° 0 mm 2 mps 744 mmHg 96%
    03:00 -12°C° 0 mm 2 mps 744 mmHg 96%
    04:00 -13°C° 0 mm 2 mps 744 mmHg 96%
    05:00 -13°C° 0 mm 2 mps 744 mmHg 96%
    06:00 -13°C° 0 mm 2 mps 744 mmHg 95%
    07:00 -11°C° 0 mm 1 mps 744 mmHg 95%
    08:00 -12°C° 0 mm 1 mps 744 mmHg 95%
    09:00 -11°C° 0 mm 1 mps 744 mmHg 94%
    10:00 -10°C° 0 mm 1 mps 744 mmHg 93%
    11:00 -9°C° 0 mm 1 mps 744 mmHg 93%
    12:00 -9°C° 0 mm 1 mps 744 mmHg 93%
    13:00 -9°C° 0 mm 1 mps 743 mmHg 92%
    14:00 -8°C° 0 mm 1 mps 743 mmHg 92%
    15:00 -9°C° 0 mm 1 mps 743 mmHg 93%
    16:00 -9°C° 0 mm 1 mps 743 mmHg 94%
    17:00 -10°C° 0 mm 1 mps 743 mmHg 94%
    18:00 -10°C° 0 mm 1 mps 744 mmHg 95%
    19:00 -11°C° 0 mm 1 mps 744 mmHg 95%
    20:00 -11°C° 0 mm 1 mps 744 mmHg 96%
    21:00 -14°C° 0 mm 2 mps 744 mmHg 96%
    22:00 -16°C° 0 mm 2 mps 744 mmHg 97%
    23:00 -17°C° 0 mm 2 mps 744 mmHg 97%
    Show more